When you browse on this site, cookies collect data to enhance your experience and personalize the content and advertising you see.
Visit our Privacy Policy to learn more. By continuing to use the site, you agree to this use of cookies and data.
  • In Portugal
  • List of Countries
  • For 7 days
  • Water Temperature
  • Weather Map
  • Weather Widgets
  • user-avatar
    Login

    Hourly Weather Chernyy Dor

    Today, 24 January, Friday

    Time Temperature Precipitation Wind Pressure Humidity
    00:00 -5°C° 0 mm 3 mps 736 mmHg 81%
    01:00 -5°C° 0 mm 4 mps 736 mmHg 86%
    02:00 -5°C° 0 mm 4 mps 735 mmHg 91%
    03:00 -4°C° 0 mm 4 mps 734 mmHg 90%
    04:00 -5°C° 0 mm 5 mps 733 mmHg 89%
    05:00 -5°C° 0 mm 5 mps 732 mmHg 87%
    06:00 -4°C° 0.3 mm 5 mps 732 mmHg 90%
    07:00 -4°C° 0.3 mm 5 mps 731 mmHg 93%
    08:00 -4°C° 0.3 mm 5 mps 731 mmHg 96%
    09:00 -2°C° 0.1 mm 4 mps 730 mmHg 95%
    10:00 -1°C° 0.1 mm 4 mps 730 mmHg 94%
    11:00 0°C° 0.1 mm 4 mps 729 mmHg 93%
    12:00 0°C° 0.1 mm 5 mps 729 mmHg 92%
    13:00 +1°C° 0.1 mm 5 mps 728 mmHg 91%
    14:00 +1°C° 0.1 mm 5 mps 728 mmHg 91%
    15:00 +1°C° 0.1 mm 5 mps 727 mmHg 91%
    16:00 +1°C° 0.1 mm 6 mps 727 mmHg 92%
    17:00 -1°C° 0.1 mm 6 mps 727 mmHg 92%
    18:00 0°C° 0 mm 5 mps 727 mmHg 92%
    19:00 0°C° 0 mm 4 mps 728 mmHg 93%
    20:00 -1°C° 0 mm 4 mps 728 mmHg 93%
    21:00 0°C° 0 mm 3 mps 728 mmHg 94%
    22:00 -1°C° 0 mm 3 mps 728 mmHg 95%
    23:00 -1°C° 0 mm 3 mps 727 mmHg 96%

    Tomorrow, 25 January, Saturday

    Time Temperature Precipitation Wind Pressure Humidity
    00:00 -1°C° 0.2 mm 3 mps 727 mmHg 96%
    01:00 -1°C° 0.2 mm 3 mps 727 mmHg 95%
    02:00 -2°C° 0.2 mm 4 mps 727 mmHg 95%
    03:00 -2°C° 0 mm 4 mps 727 mmHg 91%
    04:00 -2°C° 0 mm 4 mps 727 mmHg 88%
    05:00 -1°C° 0 mm 4 mps 727 mmHg 85%
    06:00 -1°C° 0 mm 5 mps 726 mmHg 87%
    07:00 -2°C° 0 mm 5 mps 726 mmHg 89%
    08:00 -3°C° 0 mm 6 mps 726 mmHg 90%
    09:00 -3°C° 0.2 mm 6 mps 726 mmHg 83%
    10:00 -2°C° 0.2 mm 7 mps 726 mmHg 75%
    11:00 -2°C° 0.2 mm 8 mps 725 mmHg 68%
    12:00 -2°C° 0.2 mm 7 mps 726 mmHg 66%
    13:00 -3°C° 0.2 mm 7 mps 726 mmHg 64%
    14:00 -3°C° 0.2 mm 7 mps 726 mmHg 62%
    15:00 -4°C° 0.1 mm 7 mps 727 mmHg 66%
    16:00 -4°C° 0.1 mm 6 mps 727 mmHg 70%
    17:00 -5°C° 0.1 mm 6 mps 727 mmHg 73%
    18:00 -5°C° 0.1 mm 6 mps 728 mmHg 77%
    19:00 -5°C° 0.1 mm 6 mps 728 mmHg 80%
    20:00 -6°C° 0.1 mm 7 mps 729 mmHg 84%
    21:00 -6°C° 0.1 mm 7 mps 730 mmHg 81%
    22:00 -6°C° 0.1 mm 7 mps 730 mmHg 78%
    23:00 -6°C° 0.1 mm 7 mps 731 mmHg 76%

    Day after tomorrow, 26 January, Sunday

    Time Temperature Precipitation Wind Pressure Humidity
    00:00 -5°C° 0 mm 6 mps 732 mmHg 75%
    01:00 -5°C° 0 mm 6 mps 733 mmHg 75%
    02:00 -5°C° 0 mm 6 mps 734 mmHg 75%
    03:00 -6°C° 0 mm 5 mps 734 mmHg 76%
    04:00 -6°C° 0 mm 5 mps 735 mmHg 77%
    05:00 -5°C° 0 mm 4 mps 736 mmHg 77%
    06:00 -5°C° 0 mm 4 mps 736 mmHg 79%
    07:00 -5°C° 0 mm 4 mps 737 mmHg 80%
    08:00 -6°C° 0 mm 3 mps 737 mmHg 81%
    09:00 -5°C° 0 mm 3 mps 738 mmHg 79%
    10:00 -5°C° 0 mm 3 mps 738 mmHg 77%
    11:00 -4°C° 0 mm 3 mps 739 mmHg 75%
    12:00 -4°C° 0 mm 4 mps 738 mmHg 72%
    13:00 -3°C° 0 mm 4 mps 738 mmHg 70%
    14:00 -3°C° 0 mm 4 mps 738 mmHg 67%
    15:00 -3°C° 0.1 mm 4 mps 738 mmHg 76%
    16:00 -4°C° 0.1 mm 5 mps 737 mmHg 84%
    17:00 -4°C° 0.1 mm 5 mps 737 mmHg 93%
    18:00 -2°C° 0.4 mm 5 mps 736 mmHg 94%
    19:00 -2°C° 0.4 mm 5 mps 736 mmHg 95%
    20:00 -1°C° 0.4 mm 4 mps 736 mmHg 97%
    21:00 0°C° 0.3 mm 5 mps 736 mmHg 96%
    22:00 0°C° 0.3 mm 5 mps 736 mmHg 96%
    23:00 +1°C° 0.3 mm 5 mps 735 mmHg 96%

    27 January, Monday

    Time Temperature Precipitation Wind Pressure Humidity
    00:00 +1°C° 0.4 mm 5 mps 736 mmHg 95%
    01:00 +1°C° 0.4 mm 5 mps 736 mmHg 95%
    02:00 +1°C° 0.4 mm 5 mps 736 mmHg 95%
    03:00 +1°C° 0.3 mm 5 mps 736 mmHg 95%
    04:00 +1°C° 0.3 mm 4 mps 736 mmHg 96%
    05:00 0°C° 0.3 mm 4 mps 736 mmHg 96%
    06:00 0°C° 0.1 mm 4 mps 736 mmHg 96%
    07:00 0°C° 0.1 mm 4 mps 736 mmHg 96%
    08:00 0°C° 0.1 mm 4 mps 736 mmHg 96%
    09:00 0°C° 0.2 mm 4 mps 736 mmHg 97%
    10:00 0°C° 0.2 mm 4 mps 737 mmHg 97%
    11:00 +1°C° 0.2 mm 3 mps 737 mmHg 97%
    12:00 +1°C° 0.1 mm 3 mps 737 mmHg 97%
    13:00 +1°C° 0.1 mm 3 mps 737 mmHg 97%
    14:00 +1°C° 0.1 mm 3 mps 736 mmHg 97%
    15:00 +1°C° 0.1 mm 3 mps 736 mmHg 97%
    16:00 +1°C° 0.1 mm 3 mps 736 mmHg 97%
    17:00 +2°C° 0.1 mm 2 mps 736 mmHg 98%
    18:00 +2°C° 0.2 mm 2 mps 736 mmHg 98%
    19:00 +2°C° 0.2 mm 2 mps 736 mmHg 98%
    20:00 +2°C° 0.2 mm 2 mps 736 mmHg 98%
    21:00 +1°C° 0.3 mm 2 mps 736 mmHg 98%
    22:00 0°C° 0.3 mm 3 mps 736 mmHg 97%
    23:00 0°C° 0.3 mm 3 mps 736 mmHg 97%

    28 January, Tuesday

    Time Temperature Precipitation Wind Pressure Humidity
    00:00 0°C° 0.1 mm 3 mps 736 mmHg 97%
    01:00 +1°C° 0.1 mm 2 mps 735 mmHg 97%
    02:00 +1°C° 0.1 mm 2 mps 735 mmHg 97%
    03:00 +1°C° 0.2 mm 2 mps 735 mmHg 97%
    04:00 -1°C° 0.2 mm 2 mps 735 mmHg 98%
    05:00 -1°C° 0.2 mm 2 mps 734 mmHg 98%
    06:00 -1°C° 0.1 mm 2 mps 734 mmHg 98%
    07:00 -1°C° 0.1 mm 2 mps 734 mmHg 97%
    08:00 -1°C° 0.1 mm 2 mps 734 mmHg 97%
    09:00 -1°C° 0.1 mm 2 mps 734 mmHg 97%
    10:00 -1°C° 0.1 mm 2 mps 733 mmHg 97%
    11:00 -1°C° 0.1 mm 2 mps 733 mmHg 97%
    12:00 -1°C° 0.1 mm 2 mps 733 mmHg 97%
    13:00 -1°C° 0.1 mm 2 mps 733 mmHg 97%
    14:00 -1°C° 0.1 mm 2 mps 732 mmHg 97%
    15:00 -1°C° 0.1 mm 2 mps 732 mmHg 96%
    16:00 -1°C° 0.1 mm 2 mps 732 mmHg 95%
    17:00 -1°C° 0.1 mm 2 mps 732 mmHg 94%
    18:00 -1°C° 0 mm 3 mps 732 mmHg 95%
    19:00 -1°C° 0 mm 3 mps 731 mmHg 95%
    20:00 -1°C° 0 mm 3 mps 731 mmHg 96%
    21:00 0°C° 0.1 mm 3 mps 730 mmHg 96%
    22:00 -1°C° 0.1 mm 4 mps 730 mmHg 96%
    23:00 0°C° 0.1 mm 4 mps 730 mmHg 96%

    29 January, Wednesday

    Time Temperature Precipitation Wind Pressure Humidity
    00:00 0°C° 0 mm 4 mps 729 mmHg 95%
    01:00 0°C° 0 mm 5 mps 728 mmHg 93%
    02:00 0°C° 0 mm 5 mps 727 mmHg 92%
    03:00 0°C° 0.7 mm 5 mps 727 mmHg 93%
    04:00 -1°C° 0.7 mm 6 mps 726 mmHg 95%
    05:00 -1°C° 0.7 mm 6 mps 725 mmHg 96%
    06:00 -1°C° 0.5 mm 5 mps 726 mmHg 93%
    07:00 -1°C° 0.5 mm 4 mps 726 mmHg 91%
    08:00 0°C° 0.5 mm 3 mps 726 mmHg 88%
    09:00 -1°C° 0 mm 4 mps 726 mmHg 86%
    10:00 -1°C° 0 mm 4 mps 727 mmHg 84%
    11:00 -1°C° 0 mm 5 mps 727 mmHg 81%
    12:00 -1°C° 0 mm 5 mps 727 mmHg 85%
    13:00 -1°C° 0 mm 5 mps 728 mmHg 88%
    14:00 -1°C° 0 mm 5 mps 728 mmHg 92%
    15:00 -1°C° 0 mm 5 mps 728 mmHg 89%
    16:00 -2°C° 0 mm 4 mps 728 mmHg 86%
    17:00 -2°C° 0 mm 4 mps 728 mmHg 83%
    18:00 -2°C° 0 mm 4 mps 728 mmHg 82%
    19:00 -1°C° 0 mm 5 mps 728 mmHg 81%
    20:00 -1°C° 0 mm 5 mps 728 mmHg 81%
    21:00 -1°C° 0 mm 5 mps 728 mmHg 81%
    22:00 -1°C° 0 mm 5 mps 727 mmHg 82%
    23:00 -1°C° 0 mm 5 mps 727 mmHg 83%
    Show more